STARLINK-2305

Last updated on Sat Apr 24 2021 00:02:02 GMT+0000 (Coordinated Universal Time)

1 47989U 21024N 21113.25001157 .00080003 00000-0 56983-3 0 9990 2 47989 53.0487 55.7007 0000955 78.3727 73.1405 15.73163192 1822

Satellite not in orbit